Location: Unspecified
(0.0000°N, 0.0000°E)
Time: 12:46:42
(UTC+02:00)

OPAL - Visible Passes

Search period start: 23 May 2017 00:00
Search period end: 02 June 2017 00:00
Orbit: 743 x 796 km, 100.2° (Epoch: 22 May)

Date Brightness Start Highest point End Pass type
(mag) Time Alt. Az. Time Alt. Az. Time Alt. Az.
23 May 10.2 06:20:46 10° ENE 06:24:00 17° ESE 06:27:15 10° SE visible
23 May 10.4 20:32:33 10° SW 20:34:17 12° WSW 20:36:02 10° W visible
24 May 7.6 07:22:00 10° NNE 07:27:12 86° WNW 07:32:27 10° SSW visible
25 May 9.2 06:47:11 10° NE 06:51:51 34° ESE 06:56:33 10° SSE visible
26 May 10.4 06:14:26 10° E 06:16:32 12° ESE 06:18:38 10° SE visible
26 May 10.2 20:23:49 10° SW 20:26:48 16° WSW 20:29:45 10° WNW visible
27 May 7.9 07:14:32 10° NNE 07:19:44 73° ESE 07:24:56 10° S visible
28 May 9.6 06:40:05 10° NE 06:44:23 26° ESE 06:48:41 10° SSE visible
29 May 10.0 20:15:36 10° SSW 20:19:17 21° WSW 20:22:59 10° NW visible
30 May 8.3 07:07:10 10° NNE 07:12:15 55° ESE 07:17:21 10° S visible
31 May 10.0 06:33:10 10° ENE 06:36:55 20° ESE 06:40:39 10° SSE visible
